STARLINK-31868, 59783

Orbit data source: Space-Track

STARLINK-31868, 59783 is a payload satellite owned by SpaceX/Seattle (US) in LEO that was launched on Sat, 18 May 2024 UTC via an FALCON 9 launch vehicle from the Air Force Eastern Test Range (AFETR). Payloads include a variety of satellites, spacecraft, and rockets equipped with specific instruments for various scientific and technological missions. These include communications satellites like Starlink; space stations such as the ISS; scientific satellites like the Hubble; Earth observation satellites from companies like Planet Labs, Umbra, and HawkEye 360; GPS; miniature CubeSats for education and research; and military/defense satellites.

Loading next visibility...
STARLINK-31868 details
Identifier
59783, 2024-093B
Orbit
LEO
Last TLE update19 hours ago
Origin
Flag of USSpaceX/Seattle (US)
ManufacturerSpaceX/Seattle
MissionOperational spacecraft
Bus & MotorSTARLINK V2M, Unknown motor
Mass730 kg wet, ~700 kg dry
Launch date (UTC)
2024-05-18 (8 months ago)
Launch vehicle
FALCON 9
Launch site
Air Force Eastern Test Range (AFETR)
Object type
Payload
Rocket body
Debris
Shape & HBRUnknown
Radar Cross SectionLarge (>1 m²)

Expand to show TLE details & history

TLE from 19 hours ago
0 STARLINK-31868
1 59783U 24093B   25014.49028378  .00001282  00000-0  37970-4 0  9996
2 59783  43.0027  57.1569 0001867 251.9384 108.1269 15.40692424 38574
Epoch: 2025-01-14T11:46Z
Definitive object data (Epoch: 2025-01-14T11:46:00.518Z)
Latitude-0.00004°
Longitude126.45847°
Altitude444.235 km
Speed7.647 km/s
True Right ascension03h 48m 37s
True Declination0° 00' 00"
Sunlit
Object was in full shadow at TLE epoch
Visualization TLE readout
Latitude43.11836°
Longitude-144.96387°
Altitude448.42 km
Speed7.649 km/s
Apparent Right ascension14h 29m 11s
Apparent Declination11° 24' 46"
Sunlit
Object is in full shadow
Visualization observer readout
Local Sidereal Time07:29:36
Azimuth71.693° E
Elevation-3.799°
Doppler factor1
Orbital elements
Apogee altitude447.294 km
Perigee altitude444.746 km
Semi-major axis6,824.157 km
Eccentricity0.0001867
Inclination43.0027°
RAAN57.1569°
Arg. of periapsis251.9384°
True anomaly108.14723°
Mean anomaly108.1269°
Eccentric anomaly108.13707°
Mean motion3.85008 °/min
BSTAR0.00003797
Orbital period93.5 mins
Loading maneuver chart data...
Loading historical data...
Loading historical data...
Loading historical data...
Loading historical data...
Loading historical data...
Loading historical data...
Loading historical data...

STARLINK-31868 Visibility forecast

Observer location: undefined°, undefined

Span
Click to sort rows by Start time (UTC) header in descending order
Start Az.
Max El. time (UTC)
Max El. Az.
Max El.
End time (UTC)
End Az.
6 mins2025-01-15 08:18:10.295Z277.598° WNW2025-01-15 08:21:10.295Z329.704° NNW36.721°2025-01-15 08:24:10.295Z68.665° E
5 mins2025-01-15 09:58:10.295Z297.499° NW2025-01-15 10:00:10.295Z46.638° ENE41.332°2025-01-15 10:03:10.295Z95.764° ESE
4 mins2025-01-15 11:36:10.295Z260.277° W2025-01-15 11:38:10.295Z195.159° SSW29.501°2025-01-15 11:40:10.295Z149.254° SSE
5 mins2025-01-16 06:01:10.295Z225.939° WSW2025-01-16 06:03:10.295Z143.264° SSE39.727°2025-01-16 06:06:10.295Z77.582° E
|